sat.trackr.live / text

‹ back to catalog

STARLINK-5919

NORAD 55927 · 2023-037P

PAYLOAD ACTIVE UNKNOWN

§ Identity

Operator
Country
US
Launch date
2023-03-17
Launch site
AFWTR
Launch vehicle
Mass (kg)
RCS (m²)

Purposes: comms

External: N2YO · Heavens-Above · Gunter

§ Orbital elements

Epoch: 2026-05-25T03:39:19.554624Z

Period
96.11 min
Inclination
69.9989°
Eccentricity
0.0003429
Mean motion
14.98331559 rev/d
Perigee alt
569.7 km
Apogee alt
574.4 km
Semi-major
6,950.2 km
B*
-6.9681e-6
RAAN
111.5435°
Arg perigee
266.2816°
Mean anomaly
93.7951°
Rev number
17,493

§ Raw data

STARLINK-59191 55927U 23037P   26145.15230966 -.00000176  00000+0 -69681-5 0  99932 55927  69.9989 111.5435 0003429 266.2816  93.7951 14.98331559174935

JSON: /api/v1/satellites/55927 · /tle

For live sub-satellite position, see the globe view (requires WebGL).

§ Visibility from observer

Set your observer location to see the next 7 days of passes ≥ 10°. The values pass through the URL so the page stays shareable.

No JS? Fill the form by hand. The geolocation button needs JavaScript.